User: anonymous   Login
Location: Nebula Knoll Observatory
(43.6666°N, 71.0000°W)
Time: 13:58:55
(UTC-04:00)
Language:

Cosmos 1782 - Orbit

View from above orbital plane
View from above orbital plane
View from above satellite
View from above satellite

Ground track
Ground track

The orbit data is extracted from the following two-line orbital elements,

1 16986U 86074A   16241.04779010  .00000167  00000-0  94283-5 0  9992
2 16986  82.5051  46.3189 0009166 260.2215  99.7978 15.06203925626729
Epoch (UTC): 28 August 2016 01:08:49
Eccentricity: 0.0009166
inclination: 82.5051°
perigee height: 541 km
apogee height: 554 km
right ascension of ascending node: 46.3189°
argument of perigee: 260.2215°
revolutions per day: 15.06203925
mean anomaly at epoch: 99.7978°
orbit number at epoch: 62672

The dashed part of the orbit path shows where the satellite is in the earth's shadow,  

DLR